Regional Weather Roundup
Issued by NWS Kansas City/Pleasant Hill, MO

Home | Current Version | Previous Version | Graphics & Text | Print | Product List | Glossary Off
Versions: 1 2 3 4 5 6 7 8 9 10 11 12 13 14 15 16 17 18 19 20 21 22 23 24 25 26 27 28 29 30 31 32 33 34 35 36 37 38 39 40 41 42 43 44 45 46 47 48 49 50

000
ASUS43 KEAX 282111
RWREAX

WEATHER ROUNDUP FOR EASTERN KANSAS AND NORTHWEST MISSOURI
NATIONAL WEATHER SERVICE KANSAS CITY/PLEASANT HILL MO
300 PM CST SAT FEB 28 2015

KSZ040-057-103>105-MOZ028-029-037-043-282200-
...KANSAS CITY METROPOLITAN AREA...

CITY           SKY/WX    TMP DP  RH WIND       PRES   REMARKS
K.C. INTL      LGT SNOW  23  19  85 SE7       30.40F VSB 1   WCI  15
K.C. DOWNTOWN  LGT SNOW  24  18  77 SE6       30.42F WCI  17
LEES SUMMIT    CLOUDY    22  18  85 SE5       30.42F WCI  16
OLATHE - IXD   LGT SNOW  22  17  81 SE7       30.40F WCI  13
OLATHE - OJC   LGT SNOW  22  18  85 SE8       30.39F FOG     WCI  12
LAWRENCE       CLOUDY    23  18  81 SE7       30.41F WCI  15

$$

MOZ001>008-011>017-020>025-030>033-038>040-044>046-053-054-282200-
...NORTHERN AND CENTRAL MISSOURI...

CITY           SKY/WX    TMP DP  RH WIND       PRES   REMARKS
ST. JOSEPH     LGT SNOW  23  19  85 SE8       30.42F FOG     WCI  14
MOSBY          LGT SNOW  25  21  86 E6        30.43F WCI  18
WARRENSBURG    LGT SNOW  23  19  86 E5        30.44S VSB 3/4 WCI  17
WHITEMAN AFB   LGT SNOW  23  20  87 SE5       30.42F VSB 1   WCI  17
CLINTON        SNOW      27  23  86 E5        30.43S VSB 1/2 WCI  21
SEDALIA        LGT SNOW  24  19  81 SE5       30.43F VSB 3/4 WCI  18
WARSAW         NOT AVBL
MARSHALL       LGT SNOW  25  21  86 E6        30.48  VSB 1   WCI  18
CHILLICOTHE      N/A     24  19  81 SE7       30.46F WCI  16
KIRKSVILLE     LGT SNOW  21  17  84 SE9       30.46F FOG     WCI  11

$$

MOZ041-047>049-056>058-063>065-088>090-097-282200-
...EASTERN AND SOUTHERN MISSOURI...

CITY           SKY/WX    TMP DP  RH WIND       PRES   REMARKS
ST. LOUIS INTL SNOW      25  20  81 E6        30.51S VSB 1/2 WCI  18
SPIRIT OF STL  SNOW      25  21  86 E3        30.49F VSB 1/2
COLUMBIA       LGT SNOW  23  20  88 SE7       30.44F VSB 3/4 WCI  15
JEFFERSON CITY SNOW      24  21  88 E7        30.47F VSB 1/2 WCI  16
ROLLA          SNOW      23  20  88 E7        30.41F VSB 1/2 WCI  15
OSAGE BEACH    CLOUDY    25  19  80 E5        30.42F VSB 3/4 WCI  19
SPRINGFIELD    LGT SNOW  25  20  81 SE9       30.37S VSB 3/4 WCI  15
BRANSON        LGT SNOW  25  19  80 E8        30.38F VSB 1   WCI  16
JOPLIN         SNOW      24  21  88 E7        30.38F VSB 1/2 WCI  16
WEST PLAINS    LGT SNOW  24  19  81 E7        30.40F VSB 3/4 WCI  16

$$

IAZ060-094-KSZ022-034>040-054-083-096-NEZ052-066-093-282200-
...KANSAS...SOUTHEAST NEBRASKA AND IOWA...

CITY           SKY/WX    TMP DP  RH WIND       PRES   REMARKS
TOPEKA         LGT SNOW  23  18  81 SE7       30.41S WCI  15
MANHATTAN      LGT SNOW  24  17  74 S6        30.37F WCI  17
EMPORIA        CLOUDY    22  17  81 SE3       30.35F
CHANUTE        SNOW      23  20  88 E6        30.39S VSB 1/2 WCI  16
WICHITA        CLOUDY    22  16  78 S6        30.33F WCI  14
OMAHA          LGT SNOW  22  16  78 S13       30.39F FOG     WCI  10
LINCOLN        LGT SNOW  23  17  78 S9        30.36F WCI  13
FALLS CITY     LGT SNOW  23  18  81 SE10      30.39F WCI  12
LAMONI         LGT SNOW  22  15  75 S8        30.41S WCI  12
DES MOINES     LGT SNOW  23  12  62 S10       30.43F WCI  12

$$




USA.gov is the U.S. government's official web portal to all federal, state and local government web resources and services.